Regional Weather Roundup
Issued by NWS

Home | Current Version | Previous Version | Text Only | Print | Product List | Glossary On
Versions: 1 2 3 4 5 6 7 8 9 10 11 12 13 14 15 16 17 18 19 20 21 22 23 24 25 26 27 28 29 30 31 32 33 34 35 36 37 38 39 40 41 42 43 44 45 46 47 48 49 50
000
ASUS43 KDTX 011410
RWRMI
MICHIGAN HOURLY REGIONAL WEATHER ROUNDUP
NATIONAL WEATHER SERVICE DETROIT/PONTIAC MI
900 AM EST SUN FEB 01 2015

NOTE: "FAIR" INDICATES FEW OR NO CLOUDS BELOW 12,000 FEET WITH NO
SIGNIFICANT WEATHER AND/OR OBSTRUCTION TO VISIBILITY.

MIZ047>049-052>055-059>063-066>070-074>076-081>083-011500-
SOUTHEAST LOWER MICHIGAN

CITY           SKY/WX    TMP DP  RH WIND       PRES   REMARKS
ADRIAN         LGT SNOW  26  23  88 E18       30.10F VSB 3/4
ALMA           LGT SNOW  16  13  90 NE13G25   30.19F
ANN ARBOR      LGT SNOW  23  20  88 NE10      30.13F VSB 3/4
BAD AXE        FLURRIES  15  12  86 NE8       30.24S
DETROIT CITY   LGT SNOW  24  19  81 NE8       30.17F VSB 3/4
DETROIT        LGT SNOW  25  21  86 NE7       30.16F VSB 3/4
FLINT          LGT SNOW  21  16  81 NE10      30.18F VSB 1
GROSSE ILE     LGT SNOW  25  21  86 NE10      30.14F
HILLSDALE      LGT SNOW  27  26  95 E15       30.05F VSB 1
HOWELL         LGT SNOW  19  17  92 NE9       30.13F VSB 1

CITY           SKY/WX    TMP DP  RH WIND       PRES   REMARKS
JACKSON        SNOW      24  21  88 E8        30.08F VSB 1/2
LAMBERTVILLE   LGT SNOW  28  25  86 E10G16    30.12F
LANSING        SNOW      18  14  84 NE14      30.14F VSB 1/2
LAPEER         NOT AVBL
MASON          SNOW      19  16  88 NE9       30.12F VSB 1/2
MONROE         SNOW      25  21  86 NE15G21   30.12F VSB 1/2
MT. CLEMENS    LGT SNOW  22  19  87 NE12      30.16S FOG
PONTIAC        LGT SNOW  20  17  88 NE12      30.14F VSB 1
PORT HOPE        N/A     16   9  74 NE18      30.25R WCI   0
PORT HURON     LGT SNOW  19  18  93 NE13      30.21S
TRI CITIES     SNOW      17  12  80 NE17      30.23S VSB 1/2
YPSILANTI      LGT SNOW  25  19  78 NE14      30.15F VSB 3/4
$$
MIZ043>046-050>051-056>058-064>065-071>073-077>080-011500-
SOUTHWEST LOWER MICHIGAN

CITY           SKY/WX    TMP DP  RH WIND       PRES   REMARKS
BATTLE CREEK   LGT SNOW  22  18  85 NE13      30.06F VSB 3/4
BENTON HARBOR  SNOW      25  24  96 E20G26    30.01F VSB 1/4
BIG RAPIDS     LGT SNOW  14  12  90 E9        30.16F
COLDWATER      LGT SNOW  27  26  96 E12       30.04F VSB 3/4
HOLLAND        SNOW      21  16  81 E16       30.09F VSB 1/2
GRAND RAPIDS   LGT SNOW  18  14  84 E20       30.11F VSB 3/4
KALAMAZOO      SNOW      24  21  88 E12G17    30.06F VSB 1/2
MARSHALL       LGT SNOW  21  18  91 NE8       30.06F VSB 3/4
MUSKEGON       SNOW      18  13  80 NE15G24   30.12F VSB 1/2
$$
MIZ016>042-011500-
NORTHERN LOWER MICHIGAN

CITY           SKY/WX    TMP DP  RH WIND       PRES   REMARKS
ALPENA         MIX PCPN   6   1  80 NE14      30.33S WCI -11
BEAVER ISLAND  CLOUDY    -1  -7  76 NE6       30.33F
BELLAIRE       CLOUDY     9   1  70 NE10G17   30.30R WCI  -5
CADILLAC       CLOUDY    10   5  80 NE14      30.16S WCI  -6
CHARLEVOIX     CLOUDY     5   0  79 E13       30.33S WCI -12
FRANKFORT      CLOUDY    12   6  78 E8G17     30.23F
GAYLORD        CLOUDY     4   0  83 E9        30.22R
GRAYLING       CLOUDY     8   2  76 E12G18    30.24R WCI  -7
HARBOR SPRINGS CLOUDY     4  -2  78 NE12G18   30.30S WCI -12
HOUGHTON LAKE  CLOUDY     8   2  76 E15       30.22R WCI  -9
MANISTEE       CLOUDY    14   3  62 E12G17    30.20F
OSCODA         LGT SNOW  14   9  79 NE17      30.28R WCI  -3
PELLSTON       CLOUDY     2  -4  76 NE9       30.34S HAZE
TRAVERSE CITY  CLOUDY    11   4  73 E8        30.25F
$$
MIZ007>008-015-011500-
EASTERN UPPER MICHIGAN

CITY           SKY/WX    TMP DP  RH WIND       PRES   REMARKS
KINROSS        MOCLDY    -9 -17  70 NE7       30.38R
MACKINAC ISLAN MOCLDY    -4 -11  70 NE10      30.36R WCI -21
NEWBERRY       MOCLDY    -9 -13  81 NE7       30.36R
S. S. MARIE    PTCLDY   -10 -21  58 E6        30.40R
$$
MIZ004>006-011>014-085-011500-
CENTRAL UPPER MICHIGAN

CITY           SKY/WX    TMP DP  RH WIND       PRES   REMARKS
MANISTIQUE     CLOUDY    -1  -8  71 MISG      30.34S
ESCANABA       CLOUDY     7   0  72 NE13G18   30.32S WCI  -9
MENOMINEE      CLOUDY     9   1  72 NE18G26   30.27F WCI -10
SAWYER-GWINN   LGT SNOW   7   3  85 NE12      30.27S WCI  -9
$$
MIZ001>003-009>011-084-011500-
WESTERN UPPER MICHIGAN

CITY           SKY/WX    TMP DP  RH WIND       PRES   REMARKS
IRON MOUNTAIN  CLOUDY     9   2  73 NE7       30.25S
HOUGHTON       CLOUDY     4  -1  80 NE7       30.33S
COPPER HARBOR    N/A     10   1  67 E15       30.38F WCI  -7
IRONWOOD       CLOUDY     1   1 100 CALM      30.27S
$$

ABBREVIATIONS USED IN REMARKS
   TC - TEMPERATURE IN CELSIUS
  WCI - WIND CHILL INDEX
   HX - HEAT INDEX
  VSB - VISIBILITY




USA.gov is the U.S. government's official web portal to all federal, state and local government web resources and services.